Showing default

CAMOES, 68507

Orbit data source: Space-Track

CAMOES, 68507 is a Portuguese payload satellite in SSO that was launched on Mon, 30 Mar 2026 UTC via an FALCON 9 launch vehicle from the Air Force Western Test Range (AFWTR). Payload-class satellites include a variety of spacecraft equipped with specific instruments for various scientific and technological missions. These include communications satellites like Starlink; space stations such as the ISS; scientific satellites like the Hubble; Earth observation satellites from companies like Planet Labs, Umbra, and HawkEye 360; GPS; miniature CubeSats for education and research; and military/defense satellites.

Loading next visibility...
Identifier
68507, 2026-067CV
Orbit
SSO
Country
Flag of PTPT / POR
Related business
Manufacturer
LUSO
Mission
Operational Commercial Communications
Bus & Motor
CUBESAT 8U, Unknown motor
Mass
~15 kg wet, ~15 kg dry
Launch date (UTC)
2026-03-30 (6 months ago)
Launch vehicle
FALCON 9
Launch site
Air Force Western Test Range (AFWTR)
Object type
Payload
Rocket body
Debris
Shape & HBR
Box, 0.2 m
Radar Cross Section
0.070 m², Medium (>0.1 m² and < 1m²)

Expand to show TLE details & history
Last TLE update: 12 hours ago

TLE from 12 hours ago
0 CAMOES
1 68507U 26067CV  26263.08306701  .00006205  00000-0  29471-3 0  9990
2 68507  97.4745 220.4585 0004983  97.4069 262.7732 15.19582065 26323
Epoch: 2026-09-20T01:59Z
TLE epoch observation values (Epoch: 2026-09-20T01:59:36.989Z)
Latitude
-0.00005°
Longitude
-168.42796°
Altitude
510.624 km
Speed
7.608 km/s
True Right ascension
14h 41m 50s
True Declination
0° 00' 00"
Sunlit
Object was in daylight at epoch
Visualization orbit readout
Latitude
Unknown
Longitude
Unknown
Altitude
Unknown
Speed
Unknown
Apparent Right ascension
Unknown
Apparent Declination
Unknown
Sunlit
N/A
Visualization observer readout
Local Sidereal Time
06:56:44
Azimuth
Unknown
Elevation
Unknown
Doppler factor
Unknown
Orbital elements
Apogee altitude
507.502 km
Perigee altitude
500.643 km
Semi-major axis
6,882.209 km
Eccentricity
0.0005
Inclination
97.4745°
RAAN
220.4585°
Arg. of periapsis
97.4069°
True anomaly
262.71656°
Mean anomaly
262.7732°
Eccentric anomaly
262.74488°
Mean motion
3.80147 °/min
Orbital period
94.7 mins
BSTAR
0.00029471
Loading maneuver chart data...
Computing Atmospheric mass density...
Loading historical data...
Loading historical data...
Loading historical data...
Loading historical data...
Loading historical data...
Loading historical data...
Loading historical data...

Documentation

Showing up to 5 results
|